Wind_Speed
13 12 11 10 9 8 7 7 7 7 7 6 6 6 7 7 9 10 6 7 5 8 9 4 3 1 0 2 0 4 4 2 3 2 7 7 9 8 4 6 2 3 5 4 29
16 13 12 10 9 8 7 7 7 7 7 6 5 5 6 7 9 10 9 9 12 10 5 4 1 1 3 2 1 4 4 7 6 4 6 8 3 2 4 1 2 2 5 24 31
20 17 13 10 9 8 8 7 7 7 7 6 5 5 4 6 3 6 3 15 14 10 7 4 5 2 3 2 1 3 4 5 7 9 3 7 11 1 8 2 6 7 11 17 25
23 20 15 11 9 8 7 6 7 6 6 5 3 3 2 4 1 2 1 17 11 9 10 4 3 2 1 2 2 1 7 5 8 5 3 5 6 7 3 6 6 11 15 15 17
28 23 18 13 10 8 6 6 5 5 4 3 1 1 1 2 7 3 8 18 11 11 11 4 3 2 1 1 2 4 5 4 9 11 7 4 10 6 5 4 2 6 8 16 15
28 24 20 19 12 8 5 4 5 3 2 2 2 4 1 3 4 3 12 16 11 14 8 6 6 6 3 3 3 3 6 8 7 8 4 4 4 4 3 5 4 7 13 11 14
32 26 19 18 14 9 7 6 5 3 2 4 6 3 2 9 4 7 12 12 11 12 5 8 5 1 4 7 3 4 6 9 2 2 3 6 8 6 3 7 9 12 13 8 11
32 28 20 15 15 9 7 7 5 4 4 4 5 1 6 4 3 13 12 8 10 11 8 5 5 0 4 3 8 5 4 5 5 8 5 7 8 12 3 7 13 15 12 8 11
34 29 24 15 11 8 5 5 4 4 5 6 3 2 7 5 5 14 14 3 10 10 6 6 2 2 5 3 6 6 2 5 11 2 2 3 6 9 7 8 10 10 12 9 13
36 30 28 18 11 8 4 2 3 3 5 2 1 3 4 3 5 12 19 8 1 4 1 3 4 3 4 5 3 3 4 4 6 7 8 4 6 7 7 9 8 10 13 10 12
37 33 28 20 13 8 0 3 3 2 3 6 5 4 5 5 6 10 19 5 2 6 1 3 3 5 8 7 5 3 3 5 12 17 4 7 4 8 9 20 19 15 7 8 9
38 36 28 18 14 6 3 1 3 7 7 12 10 7 14 3 4 1 17 5 5 5 2 5 6 9 5 4 4 5 5 11 8 12 5 8 2 8 13 9 8 15 11 8 9
41 39 28 15 7 1 3 7 13 6 2 7 6 5 5 11 8 7 13 7 5 6 6 7 8 4 3 4 3 6 4 6 8 10 4 3 3 4 6 14 20 17 7 12 11
42 42 24 10 2 6 3 16 14 2 4 6 4 6 6 7 5 15 21 7 2 10 5 5 6 7 5 6 5 6 9 10 7 1 4 3 5 3 6 14 19 19 16 15 14
42 38 18 3 1 1 8 16 11 3 3 1 3 7 6 9 4 5 10 5 9 7 7 9 4 5 4 8 6 9 8 6 5 4 2 7 3 3 4 8 11 14 14 15 16
42 28 11 3 0 4 14 13 2 4 4 3 4 5 5 3 2 3 4 4 4 5 2 8 3 6 8 6 4 5 2 4 4 3 1 4 2 3 3 3 2 6 12 14 16
43 19 6 1 1 11 12 4 4 3 5 5 3 2 5 4 2 5 5 5 7 4 5 5 7 4 5 5 1 5 6 4 4 3 5 4 3 3 4 1 2 6 10 10 12
40 11 7 4 8 11 4 5 2 3 4 3 4 3 5 6 2 5 2 4 5 3 2 5 7 4 4 5 7 2 7 5 4 3 3 5 4 2 2 4 2 4 5 9 12
35 9 4 17 9 9 6 3 5 3 5 6 8 2 1 3 3 4 1 3 4 6 8 6 6 3 3 3 4 4 2 3 6 2 2 3 2 4 2 3 3 4 4 7 9
19 12 5 25 8 4 5 4 3 3 7 3 2 3 2 2 2 5 3 2 3 3 3 4 1 1 1 4 7 3 4 3 3 2 3 3 3 5 7 7 6 7 7 6 5
8 4 15 23 2 5 3 4 4 6 7 4 2 2 2 3 1 2 3 3 5 6 4 2 3 4 2 3 8 1 2 6 4 4 5 3 5 5 10 10 10 8 8 7 6
7 3 20 21 4 1 2 5 7 7 5 5 5 3 2 1 2 3 6 5 5 1 3 1 4 4 7 2 4 3 6 6 5 5 2 2 6 4 9 9 8 8 7 6 7
3 3 11 10 3 4 6 5 3 6 5 5 3 5 3 3 4 6 5 3 4 1 3 3 0 1 7 6 1 4 4 4 5 3 6 5 6 3 5 6 8 8 7 7 7
3 4 4 5 2 3 5 5 5 6 2 6 6 5 3 3 4 5 3 2 7 3 6 6 6 8 8 6 4 3 4 3 5 4 5 6 6 6 10 11 8 7 8 8 7
4 1 0 4 3 4 2 3 5 6 6 7 5 10 7 5 4 3 4 5 4 6 3 5 7 7 6 6 5 7 6 9 7 6 8 8 12 12 13 15 14 12 9 8 8
3 4 5 3 3 4 2 4 6 5 4 4 4 11 9 5 5 6 5 3 5 6 5 3 4 5 4 7 8 8 8 8 12 9 7 7 7 7 6 6 9 14 12 11 10
7 5 2 4 4 2 2 4 7 6 6 3 10 9 7 5 12 13 13 8 7 2 2 3 2 2 6 4 1 10 12 13 7 6 7 6 8 4 3 6 9 11 13 12 8
Wind_Direction
352 343 335 329 323 316 305 295 286 274 270 275 288 286 281 288 293 286 249 233 170 142 127 138 216 264 261 19 78 114 52 116 224 274 270 307 27 335 291 120 60 289 197 182 143
7 355 342 330 323 319 311 298 295 283 275 275 287 290 286 298 299 259 261 187 151 161 158 154 84 74 21 344 23 92 113 207 212 227 271 299 337 16 338 107 301 357 41 130 137
13 6 354 340 328 321 313 300 298 288 278 275 286 290 287 314 306 249 82 170 181 195 181 162 96 80 42 329 204 148 198 179 248 251 249 278 310 198 155 244 213 187 137 136 145
14 7 0 352 338 327 316 306 300 286 274 272 286 290 294 338 128 346 227 168 166 190 187 167 80 81 110 223 235 270 247 209 281 250 206 246 283 295 190 216 218 184 151 144 153
19 13 11 1 349 339 326 315 305 286 259 244 256 201 17 356 253 345 141 162 168 169 180 149 99 93 294 233 201 204 282 270 250 283 242 166 240 241 268 245 169 147 161 156 160
21 18 16 13 4 356 353 346 332 310 220 171 153 154 112 304 319 181 162 169 181 180 178 145 172 196 271 277 157 227 273 279 283 280 246 181 252 209 281 146 207 185 199 173 166
18 17 15 16 18 29 26 18 14 36 122 145 151 143 103 238 334 184 179 187 193 197 145 187 203 99 22 313 265 285 334 328 281 305 287 210 340 303 238 167 199 207 215 146 156
13 14 9 13 19 26 38 35 35 67 102 126 141 100 248 309 288 185 186 209 211 215 227 230 209 179 158 283 2 4 48 357 290 334 348 64 285 293 108 180 223 211 218 176 174
10 8 5 360 8 7 10 12 41 80 105 123 86 67 271 295 202 208 201 215 193 212 237 272 219 167 26 65 8 360 267 316 323 316 333 91 277 290 346 225 244 230 238 186 173
6 4 359 354 347 346 336 345 102 94 111 115 27 344 267 218 198 203 206 208 143 131 9 145 61 76 45 66 238 270 342 308 276 294 10 299 256 291 305 10 320 260 224 202 185
2 359 354 352 342 339 286 136 6 5 207 210 198 250 279 307 167 192 194 165 329 52 165 345 53 241 230 198 205 255 244 255 278 286 198 252 287 293 17 24 7 337 268 224 189
359 355 349 351 339 345 88 138 268 285 298 226 235 246 256 331 347 227 179 158 140 199 158 12 250 236 224 229 222 226 271 281 291 267 154 269 315 65 45 23 359 2 329 360 6
356 352 346 347 338 47 321 8 352 327 314 292 196 213 212 154 206 244 149 180 166 168 186 179 237 86 182 277 257 251 204 255 231 296 275 281 358 65 42 15 12 10 12 40 41
353 350 343 349 111 343 293 342 344 338 40 277 232 256 161 148 247 211 182 147 149 197 186 228 265 230 253 263 172 268 249 238 258 347 263 79 278 19 349 23 25 14 27 42 36
352 347 343 333 332 92 328 334 330 80 352 218 178 174 150 152 208 226 175 78 171 187 125 237 223 222 244 236 179 236 253 235 231 221 56 335 84 247 359 12 17 13 24 44 44
351 348 350 45 281 357 338 333 40 44 253 322 160 175 134 212 243 120 142 68 158 146 277 224 224 173 219 250 198 260 254 62 53 86 31 278 182 309 5 314 6 42 42 51 53
350 352 11 6 52 344 337 48 35 153 316 328 331 188 189 208 223 184 165 166 176 141 237 278 246 249 182 235 121 84 55 341 335 359 236 302 338 224 160 140 135 100 77 60 62
350 1 15 26 347 343 11 55 199 272 305 332 337 340 160 13 56 337 161 210 216 137 154 194 299 217 187 181 193 154 144 153 240 213 266 308 269 256 190 118 142 73 74 75 71
351 3 37 9 337 343 64 81 212 239 304 346 324 331 345 10 69 24 159 226 246 172 198 186 261 290 139 134 116 187 132 168 109 60 82 246 104 306 145 201 171 147 101 86 94
348 336 10 347 337 34 74 234 251 16 323 327 290 19 305 331 48 33 329 285 350 76 168 230 198 322 333 99 38 135 144 80 15 223 252 273 266 228 203 215 200 187 168 157 169
8 24 358 354 2 50 154 237 298 353 24 324 278 298 209 305 7 211 252 304 10 333 69 104 109 272 44 210 176 118 91 54 110 142 198 198 247 211 181 187 198 207 196 189 185
3 3 356 358 49 34 34 314 303 351 358 344 6 26 328 340 268 239 221 216 1 271 295 38 147 197 215 314 252 163 165 142 133 219 227 164 258 217 191 190 189 200 190 198 211
8 274 350 6 61 350 322 306 299 9 320 331 319 58 282 254 262 219 224 219 327 279 187 191 302 50 346 350 304 189 164 125 111 88 190 185 258 207 210 212 213 193 186 202 207
26 352 335 31 35 52 354 296 325 330 273 337 292 318 350 261 244 279 264 304 345 238 242 138 181 175 205 202 167 171 180 157 127 136 201 216 245 216 227 225 210 195 191 199 202
25 18 101 320 347 353 287 282 307 6 349 5 340 19 338 297 296 237 358 330 321 8 90 144 220 197 229 225 196 202 185 173 190 194 193 229 225 238 220 217 215 188 183 194 208
43 16 351 285 303 333 306 4 29 351 311 315 22 327 313 256 339 314 11 343 263 339 9 8 258 175 247 204 219 240 214 203 216 226 250 263 261 224 269 211 171 186 179 196 207
16 11 87 296 337 358 257 15 333 9 285 343 331 314 296 346 307 281 268 248 231 209 303 315 136 102 253 223 307 267 206 211 211 191 184 200 227 152 221 203 187 173 177 191 200
Height
806 804 802 800 798 796 795 794 793 792 791 791 790 790 789 788 787 785 783 778 778 780 781 783 784 785 785 787 787 792 824 840 817 809 800 782 789 772 767 771 771 770 770 766 775
805 802 799 797 795 794 793 792 791 790 789 789 789 788 788 787 785 781 774 775 777 780 782 783 786 786 792 790 792 805 831 822 805 792 794 786 784 782 777 774 774 771 766 769 774
805 801 797 795 793 792 790 789 788 788 787 788 788 787 787 786 785 773 772 774 777 780 783 784 785 787 794 792 793 801 816 804 794 791 790 787 782 772 784 783 773 773 771 772 776
804 800 796 793 791 790 788 787 786 786 786 787 787 787 787 786 793 771 770 774 777 779 783 785 786 793 799 800 793 802 794 793 786 781 785 785 774 776 771 769 759 761 765 769 777
804 800 796 792 790 788 787 786 785 785 785 786 787 787 788 788 781 772 771 774 777 779 781 784 790 795 802 797 794 799 791 786 781 781 782 777 778 776 768 763 760 763 766 770 775
806 801 797 793 790 788 787 786 785 784 784 785 786 787 788 792 773 773 773 775 776 778 781 784 788 789 793 794 796 788 786 785 779 776 776 778 774 770 763 764 766 766 764 767 771
807 802 798 795 791 789 787 786 785 784 784 785 786 786 788 782 773 773 775 775 776 778 781 783 784 787 791 796 785 785 793 786 778 774 777 771 780 776 762 766 769 767 765 769 772
807 803 799 796 793 790 788 787 786 785 785 785 786 787 786 773 773 773 774 776 777 779 781 783 785 787 791 786 793 796 800 814 784 775 771 775 804 771 766 770 769 765 765 768 771
807 802 799 796 793 791 789 788 787 786 785 786 787 787 785 774 772 772 773 774 776 778 780 782 784 791 793 808 821 818 821 812 800 778 779 782 797 772 765 770 766 767 763 763 769
806 801 797 794 792 790 788 787 787 787 787 787 788 792 777 772 768 767 771 774 775 777 781 784 795 805 814 821 843 826 821 815 815 789 786 793 793 780 770 771 770 765 758 761 765
804 799 795 792 790 788 787 788 791 791 787 781 779 779 771 768 766 767 770 774 777 781 797 789 806 819 812 810 807 809 816 821 803 784 792 793 793 783 779 775 776 770 759 760 760
803 797 792 789 787 786 786 787 786 786 788 771 770 771 767 769 775 767 771 781 785 800 793 804 816 798 796 799 805 811 817 816 804 784 791 790 788 788 788 792 790 782 768 769 769
802 795 789 787 785 786 786 785 783 782 789 772 766 766 764 767 774 769 768 775 783 797 799 811 797 787 795 798 805 806 813 810 808 786 781 784 795 790 792 791 785 781 775 774 779
800 793 787 785 787 785 785 784 782 781 811 783 768 759 759 760 770 754 759 769 781 794 797 802 786 790 795 800 799 814 788 794 797 802 820 783 825 801 811 806 800 800 794 789 784
798 790 785 783 785 786 786 783 781 782 830 766 762 746 750 762 757 757 752 763 784 786 793 799 787 790 796 794 787 798 781 789 787 799 803 807 822 811 812 814 817 810 805 797 794
796 788 784 784 784 785 783 781 782 814 821 771 754 760 762 758 757 753 758 757 764 781 782 786 774 779 782 774 776 775 782 794 807 814 828 815 820 829 827 822 820 818 811 804 799
793 787 785 785 785 784 782 782 818 826 773 780 772 761 764 767 762 761 768 777 789 803 803 787 783 772 769 782 777 785 806 833 833 834 837 817 820 827 821 822 823 822 816 810 807
792 787 786 786 786 784 782 801 820 796 785 768 769 765 773 772 769 769 770 785 774 781 802 806 809 775 767 775 786 787 801 831 835 844 835 822 823 825 819 820 822 823 820 814 811
791 788 787 789 786 785 794 822 814 796 783 784 776 779 779 776 776 779 783 785 774 776 793 807 801 769 765 766 775 790 807 802 830 836 844 833 830 825 822 823 821 821 819 818 814
795 792 791 789 786 786 808 818 804 789 785 779 791 784 791 790 786 787 786 774 776 771 772 781 797 775 770 768 778 782 794 815 830 835 856 839 828 824 827 825 822 821 817 817 816
800 800 793 788 786 798 817 814 797 786 789 788 788 790 789 790 787 790 786 777 771 771 771 777 792 793 780 786 795 799 808 821 825 835 837 843 835 809 811 814 815 814 814 814 814
812 811 794 788 805 819 818 814 799 796 790 790 787 788 790 789 793 792 790 778 772 769 778 779 799 806 793 782 780 785 799 810 835 831 841 841 829 799 804 806 809 810 811 814 813
829 823 799 794 824 828 821 810 801 801 800 794 794 793 790 792 798 789 783 769 768 771 779 781 804 820 810 799 784 786 796 807 820 829 835 837 822 802 804 806 806 808 809 811 812
831 831 819 817 829 830 831 821 813 802 800 802 796 791 794 793 791 790 783 773 772 769 769 777 800 803 810 801 791 792 792 800 807 830 820 823 805 804 803 802 803 806 807 809 809
839 845 846 843 834 838 832 826 818 818 810 806 803 810 811 806 796 792 791 787 776 775 776 784 796 795 787 780 783 783 784 797 804 801 808 795 800 789 788 788 791 796 802 807 807
853 856 851 848 843 837 833 828 828 826 822 816 819 816 812 809 808 803 798 795 793 785 785 788 791 789 785 780 781 782 781 784 788 787 797 792 793 781 779 781 788 788 796 801 802
857 857 857 849 846 840 837 837 833 833 823 819 822 819 813 811 808 803 797 793 789 789 793 793 794 799 798 781 783 789 775 775 776 776 780 792 780 778 781 780 781 787 789 794 800